This is the latest recevied weather packets stored in our database for station/object WE8M. If no packets are shown the sender has not sent any weather packets the latest 10 day(s).
| Time | Temp. | Humidity | Pressure | Rain* | Wind** | Luminosity | Snow |
|---|---|---|---|---|---|---|---|
| 1777319163 | 24.44° C | 52% | 1014.1 hPa | 0 mm | - | - | - |
| 1777318860 | 24.44° C | 51% | 1014.2 hPa | 0 mm | - | - | - |
| 1777318556 | 24.44° C | 50% | 1014.3 hPa | 0 mm | - | - | - |
| 1777318253 | 24.44° C | 51% | 1014.3 hPa | 0 mm | - | - | - |
| 1777317950 | 25° C | 49% | 1014.3 hPa | 0 mm | - | - | - |
| 1777317647 | 25° C | 50% | 1014.4 hPa | 0 mm | - | - | - |
| 1777317345 | 25° C | 49% | 1014.5 hPa | 0 mm | - | - | - |
| 1777317045 | 25.56° C | 50% | 1014.5 hPa | 0 mm | - | - | - |
| 1777316743 | 25.56° C | 50% | 1014.6 hPa | 0 mm | - | - | - |
| 1777316438 | 25.56° C | 49% | 1014.8 hPa | 0 mm | - | - | - |
| 1777316136 | 25.56° C | 48% | 1015.1 hPa | 0 mm | - | - | - |
| 1777315834 | 25.56° C | 48% | 1014.9 hPa | 0 mm | - | - | - |
| 1777315532 | 25° C | 48% | 1015 hPa | 0 mm | - | - | - |
| 1777315230 | 25° C | 48% | 1015.1 hPa | 0 mm | - | - | - |
| 1777314926 | 25.56° C | 49% | 1015.1 hPa | 0 mm | - | - | - |
| 1777314622 | 25.56° C | 48% | 1015.2 hPa | 0 mm | - | - | - |
| 1777314320 | 25° C | 47% | 1015.5 hPa | 0 mm | - | - | - |
| 1777314017 | 25.56° C | 48% | 1015.4 hPa | 0 mm | - | - | - |
| 1777313714 | 25.56° C | 48% | 1015.5 hPa | 0 mm | - | - | - |
| 1777313411 | 25° C | 47% | 1015.3 hPa | 0 mm | - | - | - |
| 1777313108 | 25° C | 48% | 1015.6 hPa | 0 mm | - | - | - |
| 1777312804 | 25° C | 49% | 1015.4 hPa | 0 mm | - | - | - |
| 1777312501 | 25° C | 52% | 1015.6 hPa | 0 mm | - | - | - |
| 1777312198 | 25° C | 48% | 1015.6 hPa | 0 mm | - | - | - |
| 1777311895 | 25° C | 51% | 1015.7 hPa | 0 mm | - | - | - |
* Rain latest hour (hover to see other rain measurements)
** Current wind speed in m/s (hover to see current wind gust speed)